Snowfall_Accumulation
0.0 0.0 0.0 0.0 0.0 0.0 0.0 0.0 0.0 0.0 0.0 0.0 0.0 0.0 0.0 0.0 0.0 0.0 0.0 0.0 0.0 0.0 0.0 0.0 0.0 0.0 0.0 0.0 0.0 0.0 0.0 0.0 0.0 0.0 0.0 0.0 0.0 0.0 0.2 0.0 0.4 1.0 1.0 0.0 0.0 0.0 0.0
0.0 0.0 0.0 0.0 0.0 0.0 0.0 0.0 0.0 0.0 0.0 0.0 0.0 0.0 0.0 0.0 0.0 0.0 0.0 0.0 0.0 0.0 0.0 0.0 0.0 0.0 0.0 0.0 0.0 0.0 0.0 0.0 0.0 0.0 0.0 0.0 0.0 0.0 0.0 0.1 0.3 0.0 0.0 0.3 0.0 0.9 0.0
0.0 0.0 0.0 0.0 0.0 0.0 0.0 0.0 0.0 0.0 0.0 0.0 0.0 0.0 0.0 0.0 0.0 0.0 0.0 0.0 0.0 0.0 0.0 0.0 0.0 0.0 0.0 0.0 0.0 0.0 0.0 0.0 0.0 0.0 0.0 0.0 0.0 0.1 0.0 0.0 0.0 0.0 0.7 0.0 0.0 0.0 0.8
0.0 0.0 0.0 0.0 0.0 0.0 0.0 0.0 0.0 0.0 0.0 0.0 0.0 0.0 0.0 0.0 0.0 0.0 0.0 0.0 0.0 0.0 0.0 0.0 0.0 0.0 0.0 0.0 0.0 0.0 0.0 0.0 0.0 0.0 0.0 0.0 0.0 0.0 0.0 0.0 0.0 0.0 0.4 3.2 0.0 0.0 0.0
0.0 0.0 0.0 0.0 0.0 0.0 0.0 0.0 0.0 0.0 0.0 0.0 0.0 0.0 0.0 0.0 0.0 0.0 0.0 0.0 0.0 0.0 0.0 0.0 0.0 0.0 0.0 0.0 0.0 0.0 0.0 0.0 0.0 0.0 0.0 0.0 0.0 1.8 0.4 4.3 3.9 1.1 4.0 2.2 0.0 0.0 0.2
0.0 0.0 0.0 0.0 0.0 0.0 0.0 0.0 0.0 0.0 0.0 0.0 0.0 0.0 0.0 0.0 0.0 0.0 0.0 0.0 0.0 0.0 0.0 0.0 0.0 0.0 0.0 0.0 0.0 0.0 0.0 0.0 0.0 0.0 0.0 0.4 3.2 9.2 6.2 10.6 13.8 2.1 4.2 1.4 0.7 0.0 0.0
0.0 0.0 0.0 0.0 0.0 0.0 0.0 0.0 0.0 0.0 0.0 0.0 0.0 0.0 0.0 0.0 0.0 0.0 0.0 0.0 0.0 0.0 0.0 0.0 0.0 0.0 0.0 0.0 0.0 0.0 0.0 0.0 0.0 0.0 1.0 0.0 22.9 9.5 5.7 2.7 2.3 2.9 1.9 1.1 0.0 0.0 0.2
0.0 0.0 0.0 0.0 0.0 0.0 0.0 0.0 0.0 0.0 0.0 0.0 0.0 0.0 0.0 0.0 0.0 0.0 0.0 0.0 0.0 0.0 0.0 0.0 0.0 0.0 0.0 0.0 0.0 0.0 0.0 0.0 0.0 0.6 1.0 3.6 10.1 0.2 0.4 2.5 4.2 2.5 3.3 2.6 0.0 0.0 0.2
0.0 0.0 0.0 0.0 0.0 0.0 0.0 0.0 0.0 0.0 0.0 0.0 0.0 0.0 0.0 0.0 0.0 0.0 0.0 0.0 0.0 0.0 3.8 0.0 0.0 0.0 0.0 0.0 0.0 0.0 0.0 0.0 0.0 3.9 1.8 5.6 0.0 0.2 0.9 2.6 9.8 4.9 4.1 2.3 0.8 0.8 0.0
0.0 0.0 0.0 0.0 0.0 0.0 0.0 0.0 0.0 0.0 0.0 0.0 0.0 0.0 0.0 0.0 0.0 0.0 0.0 0.0 0.0 0.0 12.6 11.0 0.0 0.0 0.0 0.0 0.0 0.0 0.0 0.0 0.3 3.1 2.8 2.3 0.3 0.4 2.4 6.5 9.0 9.7 0.7 1.7 3.0 6.4 7.4
0.0 0.0 0.0 0.0 0.0 0.0 0.0 0.0 0.0 0.0 0.0 0.0 0.0 0.0 0.0 0.0 0.0 0.0 0.0 0.0 0.0 0.0 17.8 0.0 0.4 0.0 0.0 0.0 0.2 0.0 0.0 0.0 0.8 2.6 5.7 9.8 0.1 0.3 2.7 6.3 1.1 6.0 0.9 1.4 2.6 5.2 7.5
0.0 0.0 0.0 0.0 0.0 0.0 0.0 0.0 0.0 0.0 0.0 0.0 0.0 0.0 0.0 0.0 0.0 0.0 0.0 0.0 0.0 11.6 19.3 13.7 0.0 0.0 0.3 0.0 0.0 0.0 0.2 0.0 0.0 4.4 4.9 2.4 0.0 1.1 0.6 1.0 0.7 1.0 7.2 3.3 2.8 7.6 15.4
0.0 0.0 0.0 0.0 0.0 0.0 0.0 0.0 0.0 0.0 0.0 0.0 0.0 0.0 0.0 0.0 0.0 0.0 0.0 0.0 15.5 13.2 1.8 4.5 0.1 0.0 0.3 0.0 0.1 0.1 0.3 5.5 9.2 21.3 18.9 6.4 0.1 2.5 0.4 2.2 5.5 7.7 15.8 24.5 25.5 23.1 7.5
0.0 0.0 0.0 0.0 0.0 0.0 0.0 0.0 0.0 0.0 0.0 0.0 0.0 0.0 0.0 0.0 0.0 0.0 0.0 7.3 15.3 8.7 3.7 0.0 0.0 0.0 0.5 0.0 0.0 0.1 0.3 8.0 1.6 4.1 10.9 15.1 12.8 1.9 1.4 4.7 9.5 7.8 8.7 20.1 18.6 13.8 5.6
0.0 0.0 0.0 0.0 0.0 0.0 0.0 0.0 0.0 0.0 0.0 0.0 0.0 0.0 0.0 0.0 0.0 0.0 0.0 7.5 13.4 7.4 0.3 0.2 0.0 1.8 2.5 0.4 0.3 0.0 0.5 4.3 4.3 3.7 14.6 12.5 8.4 0.1 1.8 3.2 2.5 6.3 9.6 3.2 10.7 5.6 5.9
0.0 0.0 0.0 0.0 0.0 0.0 0.0 0.0 0.0 0.0 0.0 0.0 0.0 0.0 0.0 0.0 0.0 0.0 10.6 11.6 6.0 0.7 1.3 0.3 1.8 1.9 2.4 1.3 1.2 2.1 1.3 3.0 3.4 2.4 6.7 6.2 6.9 0.0 0.2 1.3 1.9 4.3 3.5 6.7 10.9 9.1 6.9
0.0 0.0 0.0 0.0 0.0 0.0 0.0 0.0 0.0 0.0 0.0 0.0 0.0 0.0 0.0 0.0 0.0 0.0 16.5 10.5 0.4 0.0 0.6 1.3 1.1 2.4 1.6 2.7 0.7 0.2 1.9 0.9 1.4 0.6 1.2 3.5 7.6 1.5 0.4 4.9 6.8 3.6 4.1 7.6 5.5 5.0 6.1
0.0 0.0 0.0 0.0 0.0 0.0 0.0 0.0 0.0 0.0 0.0 0.0 0.0 11.6 0.0 0.0 5.4 10.4 11.0 4.6 0.4 0.2 0.0 0.7 0.7 0.8 1.5 1.2 2.1 0.1 0.4 0.4 1.3 2.5 1.9 1.8 5.7 3.8 2.3 2.6 2.1 4.0 3.2 4.2 8.3 7.7 7.5
0.0 0.0 0.0 0.0 0.0 0.0 0.0 0.0 0.0 0.0 0.0 0.0 4.4 2.7 0.0 0.0 10.5 6.7 1.1 0.0 2.1 1.9 0.6 2.3 1.8 2.4 1.8 1.1 5.0 0.0 2.6 1.9 0.4 1.9 3.4 2.7 5.0 3.9 4.2 2.4 2.2 5.3 4.5 3.7 4.8 8.6 8.1
0.0 0.0 0.0 0.0 0.0 0.0 0.0 0.0 0.0 0.0 0.0 0.0 4.5 10.6 0.0 0.0 0.0 3.5 4.3 1.9 1.0 1.1 2.1 2.1 2.4 0.1 2.5 0.8 0.1 4.0 2.9 3.4 2.2 2.1 1.6 6.4 6.3 4.4 4.2 8.7 10.1 7.7 3.8 2.8 5.0 10.8 4.8
0.0 0.0 0.0 0.0 0.0 0.0 0.0 0.0 0.0 0.0 0.0 0.0 5.5 6.8 0.0 9.1 1.9 3.6 4.9 4.4 2.4 3.0 0.4 1.8 2.3 1.8 3.7 5.5 2.0 1.8 0.7 0.5 0.1 2.0 2.5 4.0 4.9 1.0 2.1 2.9 7.0 5.6 3.9 4.0 6.1 3.6 5.7
0.0 0.0 0.0 0.0 0.0 0.0 0.0 0.0 0.0 0.0 0.0 0.0 5.7 5.0 3.5 3.6 0.9 1.9 2.5 2.6 1.4 1.6 3.1 2.6 2.2 1.4 1.8 4.4 3.6 4.2 3.5 1.1 2.2 2.0 4.5 4.9 6.6 6.2 6.8 3.5 3.8 3.9 2.0 2.8 2.6 2.7 2.4
0.0 0.0 0.0 0.0 0.0 0.0 0.0 0.0 0.0 0.0 0.0 0.0 2.9 1.6 13.6 4.4 0.7 1.6 2.0 1.3 2.4 2.0 0.6 0.5 1.2 3.7 3.0 0.6 0.3 1.0 2.1 3.1 3.6 3.3 2.5 8.7 10.9 13.8 10.9 2.6 4.6 4.1 4.8 4.4 5.3 6.3 5.5
0.0 0.0 0.0 0.0 0.0 0.0 0.0 0.0 0.0 0.0 0.0 0.0 0.0 4.2 23.1 10.6 1.9 0.7 0.1 0.5 1.1 0.4 2.8 0.0 0.2 6.5 0.8 0.1 2.5 2.4 1.8 3.5 3.8 3.2 1.5 6.1 10.6 15.8 17.1 12.3 15.2 6.6 2.5 2.6 4.6 6.0 6.6
0.0 0.0 0.0 0.0 0.0 0.0 0.0 0.0 0.0 0.0 0.0 0.0 0.0 3.1 23.8 18.3 1.1 0.6 0.5 0.8 0.2 0.0 0.8 0.9 0.0 0.1 2.3 5.0 6.5 6.2 3.5 1.9 1.1 1.0 2.3 3.2 8.0 13.7 14.9 11.2 8.4 5.2 4.9 6.4 6.2 6.4 5.1
0.0 0.0 0.0 0.0 0.0 0.0 0.0 0.0 0.0 0.0 0.0 0.0 0.0 0.0 17.1 28.6 4.4 0.3 0.5 0.5 3.1 2.8 2.3 0.3 0.0 0.0 4.1 8.3 8.9 9.2 3.7 1.0 1.5 0.7 0.4 1.6 4.6 14.0 13.6 12.1 7.2 5.6 6.5 8.0 4.4 5.2 3.1
0.0 0.0 0.0 0.0 0.0 0.0 0.0 0.0 0.0 0.0 0.0 0.0 0.0 0.0 3.6 37.5 0.7 0.0 2.4 3.6 2.6 2.8 6.1 1.7 1.2 2.8 3.0 7.4 9.5 6.7 3.6 1.9 1.5 2.6 1.7 1.6 4.7 11.0 9.1 13.3 6.3 4.7 4.2 5.5 7.1 5.8 3.6
0.0 0.0 0.0 0.0 0.0 0.0 0.0 0.0 0.0 0.0 0.0 0.0 0.0 0.0 0.0 32.8 1.8 0.0 0.0 0.6 3.7 5.5 10.7 5.5 8.1 4.0 5.8 8.9 8.3 1.8 5.1 1.5 2.3 2.2 4.9 4.3 5.5 5.8 7.6 14.3 7.3 2.1 1.7 5.5 6.8 3.5 3.5
0.0 0.0 0.0 0.0 0.0 0.0 0.0 0.0 0.0 0.0 0.0 0.0 0.0 0.0 0.0 8.0 3.7 0.0 0.0 0.0 0.0 0.2 4.6 15.0 7.6 2.3 7.8 9.6 6.0 9.3 8.1 5.1 2.4 3.6 1.3 5.8 6.6 7.9 6.7 7.9 6.6 5.0 6.4 6.2 3.3 2.0 1.6